454P/PanSTARRS (2022)

Japanese version
Home page
Updated on March 7, 2023

---------------------------------------------------------------------

* Profile

Designation 454P/2022 U5
Discovery Date October 28, 2022
Magnitude 21.2 mag
Discoverer Pan-STARRS 2 telescope (Haleakala)

* Orbital Elements

Epoch 2023 Feb. 25.0 TT = JDT 2460000.5
T 2022 July 26.01568 TT                                 Rudenko
q   2.6857768            (2000.0)            P               Q
n   0.11428290     Peri.   19.99966     +0.28226712     -0.91870402
a   4.2054764      Node    54.58778     +0.82761224     +0.08757251
e   0.3613621      Incl.   19.81245     +0.48516311     +0.38511555
P   8.62
>From 76 observations 2021 Aug. 5-2023 Jan. 24, mean residual 0".3.

* Magnitudes Graph

        m1 = 14.0 + 5 log d + 10.0 log r

---------------------------------------------------------------------

The orbital elements are published on M.P.E.C. 2023-B154.
The magnitudes graphs are made with Comet for Windows.

---------------------------------------------------------------------

Copyright(C) Seiichi Yoshida (comet@aerith.net). All rights reserved.